Frankfort, MI

12:12 AM EDT on August 26, 2016 (GMT -0400)
Frankfort

Weather History for KFKS - January, 2013

Change the Weather History Date:

Saturday, January 19, 2013

  Actual Average (KTVC) Record (KTVC)
Temperature  
Mean Temperature 34 °F 21 °F  
Max Temperature 41 °F 27 °F 50 °F (1907)
Min Temperature 27 °F 15 °F -21 °F (1994)
Degree Days  
Heating Degree Days 30 44  
Month to date heating degree days 821  
Since 1 July heating degree days 3629  
Moisture  
Dew Point 32 °F    
Average Humidity 82    
Maximum Humidity 93    
Minimum Humidity 60    
Precipitation  
Precipitation 0.00 in 0.09 in 0.71 in (1985)
Month to date precipitation 1.85  
Year to date precipitation 1.85  
Sea Level Pressure  
Sea Level Pressure 29.65 in    
Wind  
Wind Speed 10 mph (SW)    
Max Wind Speed 29 mph    
Max Gust Speed 41 mph    
Visibility 9 miles    
Events Rain , Snow    
T = Trace of Precipitation, MM = Missing Value Source: NWS Daily Summary

Daily Weather History Graph

Daily Weather History Graph

Search for Another Location

Airport or City:

Trip Planner

Search our weather history database for the weather conditions in past years. The results will help you decide how hot, cold, wet, or windy it might be!

Date:

Astronomy

Jan. 19, 2013 Rise Set
Actual Time 8:15 AM EST 5:36 PM EST
Civil Twilight 7:43 AM EST 6:08 PM EST
Nautical Twilight 7:07 AM EST 6:44 PM EST
Astronomical Twilight 6:32 AM EST 7:18 PM EST
Moon 12:04 PM EST (1/19) 1:45 AM EST (1/19)
Length of Visible Light 10h 24m
Length of Day
9h 20m
First Quarter, 57% of the Moon is Illuminated
Jan 19
First Quarter
Jan 26
Full
Feb 3
Last Quarter
Feb 10
New
Feb 17
First Quarter

Hourly Weather History & Observations

Time (EST) Temp. Windchill Dew Point Humidity Pressure Visibility Wind Dir Wind Speed Gust Speed Precip Events Conditions
12:14 AM 40.3 °F 34.4 °F 34.2 °F 79% 29.73 in 10.0 mi SSW 9.2 mph 18.4 mph N/A   Overcast
12:34 AM 40.1 °F 32.7 °F 34.7 °F 81% 29.73 in 10.0 mi SSW 12.7 mph 20.7 mph N/A   Overcast
12:54 AM 40.5 °F 34.1 °F 34.7 °F 80% 29.73 in 10.0 mi SW 10.4 mph 19.6 mph N/A   Overcast
1:14 AM 40.5 °F 34.6 °F 34.3 °F 79% 29.73 in 10.0 mi SW 9.2 mph 19.6 mph N/A   Overcast
1:34 AM 40.5 °F 34.1 °F 34.7 °F 80% 29.73 in 10.0 mi WSW 10.4 mph 17.3 mph N/A   Overcast
1:54 AM 40.3 °F 33.4 °F 34.7 °F 80% 29.73 in 10.0 mi WSW 11.5 mph 17.3 mph N/A   Overcast
2:15 AM 40.5 °F 34.1 °F 34.5 °F 79% 29.74 in 10.0 mi WSW 10.4 mph - N/A   Overcast
2:35 AM 40.6 °F 34.8 °F 33.8 °F 77% 29.75 in 10.0 mi WSW 9.2 mph 17.3 mph N/A   Overcast
2:55 AM 40.3 °F 33.0 °F 33.1 °F 75% 29.76 in 10.0 mi West 12.7 mph 17.3 mph N/A   Overcast
3:15 AM 39.7 °F 31.5 °F 32.9 °F 77% 29.77 in 10.0 mi West 15.0 mph 20.7 mph N/A   Mostly Cloudy
3:35 AM 39.4 °F 33.2 °F 32.9 °F 78% 29.76 in 10.0 mi West 9.2 mph 17.3 mph N/A   Mostly Cloudy
3:55 AM 38.8 °F 32.1 °F 32.0 °F 76% 29.77 in 10.0 mi West 10.4 mph 21.9 mph N/A   Mostly Cloudy
4:15 AM 37.6 °F 30.0 °F 32.2 °F 81% 29.77 in 10.0 mi WNW 11.5 mph 17.3 mph N/A   Mostly Cloudy
4:35 AM 36.0 °F 29.0 °F 32.0 °F 86% 29.77 in 10.0 mi WNW 9.2 mph - N/A   Scattered Clouds
4:55 AM 35.1 °F 27.9 °F 31.3 °F 86% 29.77 in 10.0 mi WNW 9.2 mph - N/A   Clear
5:16 AM 34.7 °F 26.9 °F 30.9 °F 86% 29.78 in 10.0 mi WNW 10.4 mph - N/A   Clear
5:36 AM 34.0 °F 26.0 °F 30.2 °F 86% 29.78 in 10.0 mi WNW 10.4 mph - N/A   Clear
5:56 AM 33.8 °F 25.3 °F 30.2 °F 87% 29.79 in 10.0 mi WNW 11.5 mph 16.1 mph N/A   Scattered Clouds
6:16 AM 33.8 °F 26.4 °F 30.2 °F 87% 29.80 in 10.0 mi WNW 9.2 mph - N/A   Overcast
6:36 AM 33.3 °F 27.1 °F 30.0 °F 88% 29.80 in 10.0 mi WNW 6.9 mph - N/A   Overcast
6:56 AM 33.3 °F 28.9 °F 29.7 °F 87% 29.80 in 10.0 mi WNW 4.6 mph - N/A   Overcast
7:16 AM 33.1 °F 30.0 °F 29.7 °F 87% 29.80 in 10.0 mi WNW 3.5 mph - N/A   Overcast
7:36 AM 33.3 °F - 29.5 °F 86% 29.80 in 10.0 mi Calm Calm - N/A   Overcast
7:51 AM 33.3 °F - 29.7 °F 87% 29.81 in 10.0 mi Calm Calm - N/A   Overcast
8:12 AM 32.5 °F - 29.3 °F 88% 29.80 in 10.0 mi Calm Calm - N/A   Overcast
8:32 AM 32.5 °F - 29.5 °F 88% 29.80 in 7.0 mi Calm Calm - N/A   Overcast
8:52 AM 32.5 °F - 29.8 °F 90% 29.79 in 7.0 mi Calm Calm - N/A   Overcast
9:12 AM 32.9 °F - 29.8 °F 88% 29.78 in 5.0 mi Calm Calm - N/A   Overcast
9:32 AM 33.1 °F 30.0 °F 30.0 °F 89% 29.77 in 7.0 mi ESE 3.5 mph - N/A   Overcast
9:52 AM 33.1 °F 30.0 °F 30.2 °F 89% 29.77 in 7.0 mi SSE 3.5 mph - N/A   Overcast
10:12 AM 33.8 °F 29.6 °F 30.2 °F 87% 29.77 in 7.0 mi South 4.6 mph - N/A   Overcast
10:32 AM 34.0 °F 31.0 °F 30.2 °F 86% 29.77 in 10.0 mi South 3.5 mph - N/A   Overcast
10:52 AM 34.7 °F 31.8 °F 30.4 °F 84% 29.77 in 10.0 mi South 3.5 mph - N/A   Overcast
11:13 AM 34.7 °F 30.6 °F 31.3 °F 87% 29.76 in 4.0 mi South 4.6 mph - N/A Snow Light Snow
11:33 AM 34.9 °F 30.8 °F 32.0 °F 89% 29.73 in 5.0 mi South 4.6 mph - N/A Rain Light Rain
11:53 AM 35.2 °F 32.4 °F 32.2 °F 89% 29.71 in 4.0 mi South 3.5 mph - N/A Rain Light Rain
12:13 PM 35.2 °F 32.4 °F 32.7 °F 91% 29.69 in 3.0 mi ESE 3.5 mph - N/A Rain Light Rain
12:33 PM 35.1 °F 32.2 °F 32.9 °F 92% 29.68 in 2.0 mi SSE 3.5 mph - N/A Rain Light Rain
12:53 PM 36.0 °F 31.1 °F 34.0 °F 93% 29.66 in 4.0 mi South 5.8 mph - N/A   Light Drizzle
1:13 PM 37.6 °F 30.5 °F 35.2 °F 91% 29.64 in 7.0 mi South 10.4 mph 16.1 mph N/A Rain Light Rain
1:33 PM 38.1 °F 31.2 °F 35.4 °F 90% 29.61 in 10.0 mi SSW 10.4 mph 16.1 mph N/A   Mostly Cloudy
1:54 PM 38.5 °F 33.4 °F 35.1 °F 87% 29.60 in 10.0 mi SSW 6.9 mph 16.1 mph N/A   Overcast
2:14 PM 38.7 °F 32.4 °F 34.9 °F 86% 29.58 in 10.0 mi South 9.2 mph 16.1 mph N/A   Overcast
2:34 PM 39.2 °F 32.0 °F 35.1 °F 85% 29.58 in 10.0 mi SW 11.5 mph 18.4 mph N/A   Mostly Cloudy
2:54 PM 39.4 °F 30.7 °F 34.7 °F 83% 29.57 in 10.0 mi SSW 16.1 mph 21.9 mph N/A   Mostly Cloudy
3:14 PM 39.2 °F 32.0 °F 34.7 °F 84% 29.57 in 10.0 mi SSW 11.5 mph 23.0 mph N/A   Mostly Cloudy
3:34 PM 39.2 °F 33.0 °F 34.7 °F 84% 29.56 in 10.0 mi SSW 9.2 mph 23.0 mph N/A   Overcast
3:54 PM 38.8 °F 30.4 °F 34.7 °F 85% 29.55 in 10.0 mi SSW 15.0 mph 21.9 mph N/A   Overcast
4:14 PM 39.2 °F 31.2 °F 34.7 °F 84% 29.55 in 10.0 mi SSW 13.8 mph 21.9 mph N/A   Mostly Cloudy
4:34 PM 39.2 °F 30.5 °F 34.3 °F 83% 29.54 in 10.0 mi South 16.1 mph 23.0 mph N/A   Overcast
4:55 PM 39.2 °F 33.0 °F 34.3 °F 83% 29.55 in 10.0 mi SSW 9.2 mph 19.6 mph N/A   Overcast
5:15 PM 39.2 °F 33.0 °F 34.2 °F 82% 29.53 in 10.0 mi SW 9.2 mph 21.9 mph N/A   Overcast
5:35 PM 39.2 °F 32.5 °F 34.3 °F 83% 29.52 in 10.0 mi South 10.4 mph 20.7 mph N/A   Overcast
5:55 PM 39.6 °F 31.3 °F 34.9 °F 83% 29.52 in 10.0 mi South 15.0 mph 23.0 mph N/A   Overcast
6:15 PM 39.6 °F 32.1 °F 34.9 °F 83% 29.52 in 10.0 mi South 12.7 mph 23.0 mph N/A   Overcast
6:35 PM 39.6 °F 32.5 °F 35.1 °F 84% 29.51 in 10.0 mi South 11.5 mph 23.0 mph N/A   Overcast
6:55 PM 39.7 °F 33.7 °F 35.6 °F 85% 29.51 in 10.0 mi SSW 9.2 mph 19.6 mph N/A   Overcast
7:15 PM 40.5 °F 32.8 °F 35.6 °F 83% 29.50 in 10.0 mi SSW 13.8 mph 25.3 mph N/A   Overcast
7:35 PM 41.0 °F 33.5 °F 34.5 °F 78% 29.50 in 10.0 mi WSW 13.8 mph 25.3 mph N/A   Overcast
7:55 PM 41.4 °F 33.6 °F 33.3 °F 73% 29.50 in 10.0 mi West 15.0 mph 25.3 mph N/A   Overcast
8:16 PM 39.2 °F 30.2 °F 30.2 °F 70% 29.50 in 10.0 mi West 17.3 mph 33.4 mph N/A   Overcast
8:36 PM 38.7 °F 29.8 °F 30.9 °F 74% 29.49 in 10.0 mi West 16.1 mph 32.2 mph N/A   Overcast
8:56 PM 38.5 °F 29.2 °F 29.1 °F 69% 29.49 in 10.0 mi West 17.3 mph 28.8 mph N/A   Overcast
9:16 PM 38.3 °F 28.4 °F 25.7 °F 61% 29.48 in 10.0 mi West 19.6 mph 29.9 mph N/A   Overcast
9:36 PM 37.8 °F 28.6 °F 25.7 °F 62% 29.48 in 10.0 mi West 16.1 mph 35.7 mph N/A   Overcast
9:56 PM 37.4 °F 26.4 °F 24.6 °F 60% 29.48 in 10.0 mi West 23.0 mph 33.4 mph N/A   Overcast
10:16 PM 37.4 °F 27.2 °F 25.2 °F 61% 29.47 in 10.0 mi WNW 19.6 mph 32.2 mph N/A   Overcast
10:31 PM 35.4 °F 23.5 °F 26.2 °F 69% 29.48 in 10.0 mi WNW 24.2 mph 40.3 mph N/A   Overcast
10:51 PM 33.6 °F 20.5 °F 23.9 °F 68% 29.49 in 10.0 mi WNW 26.5 mph 39.1 mph N/A   Overcast
11:12 PM 30.9 °F 17.5 °F 25.5 °F 80% 29.52 in 2.5 mi NW 24.2 mph 41.4 mph N/A Snow Light Snow
11:32 PM 28.4 °F 15.4 °F 22.5 °F 78% 29.55 in 7.0 mi NNW 19.6 mph 31.1 mph N/A Snow Light Snow
11:52 PM 27.7 °F 12.0 °F 21.0 °F 76% 29.56 in 5.0 mi NW 28.8 mph 35.7 mph N/A Snow Light Snow